Location: Unspecified
(0.0000°N, 0.0000°E)
Time: 21:17:41
(UTC+00:00)

Explorer 7 - Pass Details

Date: 19 June 2025
Orbit: 444 x 569 km, 50.3° (Epoch: 12 July)

Event Time Altitude Azimuth Distance (km) Brightness Sun altitude
Rises 23:12:11 0° 323° (NW) 2,464 - -63.7°
Reaches altitude 10° 23:14:17 10° 322° (NW) 1,609 - -63.9°
Maximum altitude 23:17:55 87° 231° (SW) 482 - -64.3°
Drops below altitude 10° 23:21:44 10° 144° (SE) 1,687 - -64.6°
Sets 23:23:58 0° 144° (SE) 2,596 - -64.8°
